Flag for Germany Weather past 2 weeks in Mülheim, North Rhine-Westphalia, Germany

Now
57 °F

Clear.


Feels Like: 57 °F
Forecast: 52 / 65 °F
Wind: 3 mph from Southeast

Location: Koeln / Bonn

Current Time: Apr 25, 2015 at 2:51:58 AM

Latest Report: Apr 25, 2015 at 2:20 AM


Visibility: 10 mi

Pressure: 29.80 "Hg

Humidity: 55%

Dew point: 41 °F

Location of MülheimLocation

Historic Weather in Mülheim — Graph

°F

Mülheim temperature yesterday

Maximum temperature yesterday: 72 °F (at 2:50 PM)
Minimum temperature yesterday: 37 °F (at 4:50 AM)
Average temperature yesterday: 57 °F

Past Weeks' High & Low Weather Summary

 TemperatureHumidityPressure
High77 °F (Apr 15, 4:20 PM)100% (Apr 23, 7:20 AM)30.48 "Hg (Apr 23, 7:20 AM)
Low30 °F (Apr 19, 6:50 AM)16% (Apr 10, 6:20 PM)29.83 "Hg (Apr 24, 5:50 PM)
Average53 °F56%30.19 "Hg
* Reported Apr 10 1:20 AM — Apr 25 1:20 AM, Mülheim, Weather by CustomWeather, © 2015

Note: Actual official high and low records may vary slightly from our data, if they occured in-between our weather recording intervals... More about our weather records

Advertising

Mülheim weather history for previous 24 hours

 ConditionsComfort  
Time TempWeatherWind HumidityBarometerVisibility
1:20 AM
Sat, Apr 25
57 °FClear.3 mph51%29.83 "Hg10 mi
12:50 AM57 °FClear.8 mph51%29.83 "Hg10 mi
12:20 AM59 °FClear.6 mph48%29.83 "Hg10 mi
11:50 PM
Fri, Apr 24
59 °FClear.5 mph45%29.83 "Hg10 mi
11:20 PM59 °FClear.8 mph48%29.83 "Hg10 mi
10:50 PM59 °FClear.6 mph48%29.83 "Hg10 mi
10:20 PM59 °FClear.3 mph51%29.83 "Hg10 mi
9:50 PM59 °FClear.2 mph51%29.83 "Hg10 mi
9:20 PM63 °FSunny.2 mph45%29.83 "Hg10 mi
8:50 PM61 °FSunny.2 mph52%29.83 "Hg10 mi
8:20 PM66 °FSunny.3 mph40%29.83 "Hg10 mi
7:50 PM68 °FSunny.6 mph35%29.83 "Hg10 mi
7:20 PM68 °FSunny.8 mph33%29.83 "Hg10 mi
6:50 PM70 °FSunny.9 mph31%29.83 "Hg10 mi
6:20 PM70 °FSunny.10 mph25%29.83 "Hg10 mi
5:50 PM72 °FSunny.7 mph23%29.83 "Hg10 mi
5:20 PM72 °FSunny.7 mph22%29.86 "Hg10 mi
4:50 PM72 °FSunny.10 mph23%29.86 "Hg10 mi
4:20 PM72 °FSunny.10 mph27%29.86 "Hg10 mi
3:50 PM72 °FSunny.12 mph25%29.86 "Hg10 mi
3:20 PM70 °FSunny.7 mph27%29.89 "Hg10 mi
2:50 PM72 °FSunny.7 mph29%29.89 "Hg10 mi
2:20 PM70 °FSunny.12 mph31%29.89 "Hg10 mi
1:50 PM68 °FSunny.7 mph33%29.89 "Hg10 mi
1:20 PM68 °FSunny.7 mph35%29.92 "Hg10 mi
12:50 PM66 °FPassing clouds.5 mph37%29.92 "HgN/A
12:20 PM64 °FPassing clouds.6 mph40%29.92 "HgN/A
11:50 AM64 °FSunny.9 mph40%29.95 "Hg10 mi
11:20 AM63 °FSunny.3 mph42%29.95 "Hg10 mi
10:50 AM61 °FSunny.3 mph48%29.95 "Hg10 mi
10:20 AM59 °FSunny.3 mph48%29.95 "Hg10 mi
9:50 AM55 °FSunny.6 mph55%29.95 "Hg10 mi
9:20 AM54 °FSunny.7 mph63%29.95 "Hg10 mi
8:50 AM50 °FSunny.8 mph71%29.95 "Hg10 mi
8:20 AM48 °FSunny.8 mph71%29.98 "Hg10 mi
7:50 AM45 °FSunny.5 mph81%29.98 "Hg10 mi
7:20 AM45 °FSunny.5 mph81%29.95 "Hg10 mi
6:50 AM41 °FFog.5 mph87%29.98 "HgN/A
6:20 AM39 °FClear.2 mph93%29.95 "Hg10 mi
5:50 AM39 °FClear.3 mph87%29.95 "Hg10 mi
4:50 AM37 °FClear.2 mph100%29.98 "Hg10 mi
4:20 AM39 °FClear.1 mph87%29.98 "Hg10 mi
3:50 AM39 °FClear.3 mph87%29.98 "Hg10 mi
2:50 AM41 °FClear.3 mph87%29.98 "Hg10 mi
2:20 AM41 °FClear.1 mph87%29.98 "Hg10 mi
Weather by CustomWeather, © 2015

See weather overviewHow to use our weather pages